Location: The Dilly Hill Observatory
(31.5262°N, 86.8310°W)
Time: 00:14:53
(UTC-05:00)

Envisat - Visible Passes

Search period start: 22 July 2018 00:00
Search period end: 01 August 2018 00:00
Orbit: 764 x 766 km, 98.2° (Epoch: 21 July)

Date Brightness Start Highest point End Pass type
(mag) Time Alt. Az. Time Alt. Az. Time Alt. Az.
22 Jul 4.0 20:31:25 10° S 20:36:16 47° W 20:41:10 10° NNW visible
24 Jul 5.1 20:57:49 10° SSW 21:01:56 25° W 21:06:04 10° NW visible
25 Jul 3.6 20:20:06 10° S 20:25:06 62° W 20:30:08 10° NNW visible
26 Jul 5.7 21:25:25 10° WSW 21:27:41 13° W 21:29:57 10° WNW visible
27 Jul 4.7 20:46:13 10° SSW 20:50:43 32° W 20:55:15 10° NW visible
28 Jul 3.2 20:08:51 10° S 20:13:56 81° WSW 20:19:02 10° NNW visible
29 Jul 5.6 21:13:10 10° SW 21:16:26 17° W 21:19:42 10° NW visible
30 Jul 4.2 20:34:45 10° S 20:39:31 42° W 20:44:19 10° NNW visible
